User: anonymous   Login
Location: Cudham
(51.3000°N, 0.0667°E)
Time: 10:38:10
(UTC+00:00)
Language:

ATLAS CENTAUR R/B - Orbit

View from above orbital plane
View from above orbital plane
View from above satellite
View from above satellite

Ground track
Ground track

The orbit data is extracted from the following two-line orbital elements,

1 38770U 12048N   25193.93350628  .00024034  00000-0  45758-3 0  9991
2 38770  64.6416 339.0730 0091183 268.6845  90.3845 15.43669601 65933
Epoch (UTC): 12 July 2025 22:24:14
Eccentricity: 0.0091183
inclination: 64.6416°
perigee height: 373 km
apogee height: 497 km
right ascension of ascending node: 339.0730°
argument of perigee: 268.6845°
revolutions per day: 15.43669601
mean anomaly at epoch: 90.3845°
orbit number at epoch: 6593

The dashed part of the orbit path shows where the satellite is in the earth's shadow,  

DLR